IT9DBI-3 Weather Reports


time (UTC)temp
C
wind
direction
speed
KPH
gust
KPH
rain 1hr
cm
rain 24hr
cm
rain mn
cm
humidity
%
barometer
mb
20260504045053 11 0.0 0.0 0.00 0.00 0.00 89 1019.7
20260504043051 11 0.0 0.0 0.00 0.00 0.00 85 1019.8
20260504041050 11 0.0 0.0 0.00 0.00 0.00 89 1019.5
20260504035048 11 0.0 0.0 0.00 0.00 0.00 94 1019.5
20260504033047 11 0.0 0.0 0.00 0.00 0.00 98 1019.4
20260504031046 11 0.0 0.0 0.00 0.00 0.00 96 1019.5
20260504025045 10 0.0 0.0 0.00 0.00 0.00 86 1019.7
20260504023043 10 0.0 0.0 0.00 0.00 0.00 80 1019.6
20260504021043 11 0.0 0.0 0.00 0.00 0.00 77 1019.6
20260504015041 11 0.0 0.0 0.00 0.00 0.00 73 1019.4
20260504013039 10 0.0 0.0 0.00 0.00 0.00 76 1019.3
20260504011038 11 0.0 0.0 0.00 0.00 0.00 78 1019.5
20260504005037 11 0.0 0.0 0.00 0.00 0.00 88 1019.6
20260504003036 11 0.0 0.0 0.00 0.00 0.00 87 1019.6
20260504001034 11 0.0 0.0 0.00 0.00 0.00 91 1019.6
20260503235033 11 0.0 0.0 0.00 0.00 0.00 90 1019.9
20260503233032 11 0.0 0.0 0.00 0.00 0.00 90 1020.0
20260503231030 12 0.0 0.0 0.00 0.00 0.00 94 1020.1
20260503225029 12 0.0 0.0 0.00 0.00 0.00 95 1020.3
20260503223028 12 0.0 0.0 0.00 0.00 0.00 98 1020.3
20260503221027 12 0.0 0.0 0.00 0.00 0.00 96 1020.4
20260503215025 12 0.0 0.0 0.00 0.00 0.00 98 1020.3
20260503213024 12 0.0 0.0 0.00 0.00 0.00 98 1020.3
20260503211023 13 0.0 0.0 0.00 0.00 0.00 97 1020.3
20260503205021 12 0.0 0.0 0.00 0.00 0.00 99 1020.5
20260503203020 12 0.0 0.0 0.00 0.00 0.00 97 1020.5
20260503201019 13 0.0 0.0 0.00 0.00 0.00 95 1020.3
20260503195017 13 0.0 0.0 0.00 0.00 0.00 94 1020.3
20260503193017 13 0.0 0.0 0.00 0.00 0.00 93 1020.4
20260503191015 13 0.0 0.0 0.00 0.00 0.00 91 1020.3
20260503185014 13 0.0 0.0 0.00 0.00 0.00 89 1020.0
20260503183012 14 0.0 0.0 0.00 0.00 0.00 87 1019.9
20260503181011 15 0.0 0.0 0.00 0.00 0.00 85 1019.6
20260503175009 16 0.0 0.0 0.00 0.00 0.00 74 1019.3
20260503173008 18 0.0 0.0 0.00 0.00 0.00 66 1019.2
20260503171007 19 0.0 0.0 0.00 0.00 0.00 58 1019.0
20260503150959 20 0.0 0.0 0.00 0.00 0.00 51 1019.1
20260503130943 20 0.0 0.0 0.00 0.00 0.00 52 1019.7
20260503080914 16 0.0 0.0 0.00 0.00 0.00 53 1021.0
20260503072911 16 0.0 0.0 0.00 0.00 0.00 54 1021.0
20260503070910 16 0.0 0.0 0.00 0.00 0.00 54 1021.0
20260503054904 15 0.0 0.0 0.00 0.00 0.00 55 1020.8
20260503052903 15 0.0 0.0 0.00 0.00 0.00 55 1020.7